owner,sensor,date,latitude,longitude,air_temperature,qcFlag 
COMPS,ioos:station:USF.COMPS:TAR:1,2011-02-01T00:00:00Z,28.1560,-82.7580,19.1,1111122 
COMPS,ioos:station:USF.COMPS:TAR:1,2011-02-01T01:00:00Z,28.1560,-82.7580,17.0,1111122 
COMPS,ioos:station:USF.COMPS:TAR:1,2011-02-01T02:00:00Z,28.1560,-82.7580,17.0,1111122 
COMPS,ioos:station:USF.COMPS:TAR:1,2011-02-01T02:06:00Z,28.1560,-82.7580,17.26,1111122 
COMPS,ioos:station:USF.COMPS:TAR:1,2011-02-01T02:12:00Z,28.1560,-82.7580,16.98,1111122 
COMPS,ioos:station:USF.COMPS:TAR:1,2011-02-01T02:18:00Z,28.1560,-82.7580,16.98,1111122 
COMPS,ioos:station:USF.COMPS:TAR:1,2011-02-01T02:24:00Z,28.1560,-82.7580,17.0,1111122 
COMPS,ioos:station:USF.COMPS:TAR:1,2011-02-01T02:30:00Z,28.1560,-82.7580,16.7,1111122 
COMPS,ioos:station:USF.COMPS:TAR:1,2011-02-01T02:36:00Z,28.1560,-82.7580,16.45,1111122 
COMPS,ioos:station:USF.COMPS:TAR:1,2011-02-01T02:42:00Z,28.1560,-82.7580,16.29,1111122 
COMPS,ioos:station:USF.COMPS:TAR:1,2011-02-01T02:48:00Z,28.1560,-82.7580,16.16,1111122 
COMPS,ioos:station:USF.COMPS:TAR:1,2011-02-01T02:54:00Z,28.1560,-82.7580,16.16,1111122 
COMPS,ioos:station:USF.COMPS:TAR:1,2011-02-01T03:00:00Z,28.1560,-82.7580,16.2,1111122 
COMPS,ioos:station:USF.COMPS:TAR:1,2011-02-01T04:00:00Z,28.1560,-82.7580,15.8,1111122 
COMPS,ioos:station:USF.COMPS:TAR:1,2011-02-01T05:00:00Z,28.1560,-82.7580,15.1,1111122 
COMPS,ioos:station:USF.COMPS:TAR:1,2011-02-01T06:00:00Z,28.1560,-82.7580,15.0,1111122 
COMPS,ioos:station:USF.COMPS:TAR:1,2011-02-01T06:06:00Z,28.1560,-82.7580,14.77,1111122 
COMPS,ioos:station:USF.COMPS:TAR:1,2011-02-01T06:12:00Z,28.1560,-82.7580,14.6,1111122 
COMPS,ioos:station:USF.COMPS:TAR:1,2011-02-01T06:18:00Z,28.1560,-82.7580,14.6,1111122 
COMPS,ioos:station:USF.COMPS:TAR:1,2011-02-01T06:24:00Z,28.1560,-82.7580,14.58,1111122 
COMPS,ioos:station:USF.COMPS:TAR:1,2011-02-01T06:30:00Z,28.1560,-82.7580,14.51,1111122 
COMPS,ioos:station:USF.COMPS:TAR:1,2011-02-01T06:36:00Z,28.1560,-82.7580,14.4,1111122 
COMPS,ioos:station:USF.COMPS:TAR:1,2011-02-01T06:42:00Z,28.1560,-82.7580,14.4,1111122 
COMPS,ioos:station:USF.COMPS:TAR:1,2011-02-01T06:48:00Z,28.1560,-82.7580,14.53,1111122 
COMPS,ioos:station:USF.COMPS:TAR:1,2011-02-01T06:54:00Z,28.1560,-82.7580,14.54,1111122 
COMPS,ioos:station:USF.COMPS:TAR:1,2011-02-01T07:00:00Z,28.1560,-82.7580,14.5,1111122 
COMPS,ioos:station:USF.COMPS:TAR:1,2011-02-01T08:00:00Z,28.1560,-82.7580,14.9,1111122 
COMPS,ioos:station:USF.COMPS:TAR:1,2011-02-01T08:06:00Z,28.1560,-82.7580,14.81,1111122 
COMPS,ioos:station:USF.COMPS:TAR:1,2011-02-01T08:12:00Z,28.1560,-82.7580,14.8,1111122 
COMPS,ioos:station:USF.COMPS:TAR:1,2011-02-01T08:18:00Z,28.1560,-82.7580,14.8,1111122 
COMPS,ioos:station:USF.COMPS:TAR:1,2011-02-01T08:24:00Z,28.1560,-82.7580,14.71,1111122 
COMPS,ioos:station:USF.COMPS:TAR:1,2011-02-01T08:30:00Z,28.1560,-82.7580,14.69,1111122 
COMPS,ioos:station:USF.COMPS:TAR:1,2011-02-01T08:36:00Z,28.1560,-82.7580,14.67,1111122 
COMPS,ioos:station:USF.COMPS:TAR:1,2011-02-01T08:42:00Z,28.1560,-82.7580,14.67,1111122 
COMPS,ioos:station:USF.COMPS:TAR:1,2011-02-01T08:48:00Z,28.1560,-82.7580,14.67,1111122 
COMPS,ioos:station:USF.COMPS:TAR:1,2011-02-01T08:54:00Z,28.1560,-82.7580,14.67,1111122 
COMPS,ioos:station:USF.COMPS:TAR:1,2011-02-01T09:00:00Z,28.1560,-82.7580,14.7,1111122 
COMPS,ioos:station:USF.COMPS:TAR:1,2011-02-01T10:00:00Z,28.1560,-82.7580,14.4,1111122 
COMPS,ioos:station:USF.COMPS:TAR:1,2011-02-01T11:00:00Z,28.1560,-82.7580,14.1,1111122 
COMPS,ioos:station:USF.COMPS:TAR:1,2011-02-01T12:00:00Z,28.1560,-82.7580,14.1,1111122 
COMPS,ioos:station:USF.COMPS:TAR:1,2011-02-01T12:06:00Z,28.1560,-82.7580,14.13,1111122 
COMPS,ioos:station:USF.COMPS:TAR:1,2011-02-01T12:12:00Z,28.1560,-82.7580,14.13,1111122 
COMPS,ioos:station:USF.COMPS:TAR:1,2011-02-01T12:18:00Z,28.1560,-82.7580,14.17,1111122 
COMPS,ioos:station:USF.COMPS:TAR:1,2011-02-01T12:24:00Z,28.1560,-82.7580,14.32,1111122 
COMPS,ioos:station:USF.COMPS:TAR:1,2011-02-01T12:30:00Z,28.1560,-82.7580,14.26,1111122 
COMPS,ioos:station:USF.COMPS:TAR:1,2011-02-01T12:36:00Z,28.1560,-82.7580,14.36,1111122 
COMPS,ioos:station:USF.COMPS:TAR:1,2011-02-01T12:42:00Z,28.1560,-82.7580,14.4,1111122 
COMPS,ioos:station:USF.COMPS:TAR:1,2011-02-01T12:48:00Z,28.1560,-82.7580,14.49,1111122 
COMPS,ioos:station:USF.COMPS:TAR:1,2011-02-01T12:54:00Z,28.1560,-82.7580,14.61,1111122 
COMPS,ioos:station:USF.COMPS:TAR:1,2011-02-01T13:00:00Z,28.1560,-82.7580,14.6,1111122 
COMPS,ioos:station:USF.COMPS:TAR:1,2011-02-01T14:00:00Z,28.1560,-82.7580,17.9,1111122 
COMPS,ioos:station:USF.COMPS:TAR:1,2011-02-01T15:00:00Z,28.1560,-82.7580,20.2,1111122 
COMPS,ioos:station:USF.COMPS:TAR:1,2011-02-01T16:00:00Z,28.1560,-82.7580,21.5,1111122 
COMPS,ioos:station:USF.COMPS:TAR:1,2011-02-01T17:00:00Z,28.1560,-82.7580,22.7,1111122 
COMPS,ioos:station:USF.COMPS:TAR:1,2011-02-01T18:00:00Z,28.1560,-82.7580,24.3,1111122 
COMPS,ioos:station:USF.COMPS:TAR:1,2011-02-01T19:00:00Z,28.1560,-82.7580,25.0,1111122 
COMPS,ioos:station:USF.COMPS:TAR:1,2011-02-01T19:06:00Z,28.1560,-82.7580,25.2,1111122 
COMPS,ioos:station:USF.COMPS:TAR:1,2011-02-01T19:12:00Z,28.1560,-82.7580,25.04,1111122 
COMPS,ioos:station:USF.COMPS:TAR:1,2011-02-01T19:18:00Z,28.1560,-82.7580,25.31,1111122 
COMPS,ioos:station:USF.COMPS:TAR:1,2011-02-01T19:24:00Z,28.1560,-82.7580,25.71,1111122 
COMPS,ioos:station:USF.COMPS:TAR:1,2011-02-01T19:30:00Z,28.1560,-82.7580,25.4,1111122 
COMPS,ioos:station:USF.COMPS:TAR:1,2011-02-01T19:36:00Z,28.1560,-82.7580,25.35,1111122 
COMPS,ioos:station:USF.COMPS:TAR:1,2011-02-01T19:42:00Z,28.1560,-82.7580,25.29,1111122 
COMPS,ioos:station:USF.COMPS:TAR:1,2011-02-01T19:48:00Z,28.1560,-82.7580,25.22,1111122 
COMPS,ioos:station:USF.COMPS:TAR:1,2011-02-01T19:54:00Z,28.1560,-82.7580,25.17,1111122 
COMPS,ioos:station:USF.COMPS:TAR:1,2011-02-01T20:00:00Z,28.1560,-82.7580,25.2,1111122 
COMPS,ioos:station:USF.COMPS:TAR:1,2011-02-01T21:00:00Z,28.1560,-82.7580,26.5,1111122 
COMPS,ioos:station:USF.COMPS:TAR:1,2011-02-01T22:00:00Z,28.1560,-82.7580,25.4,1111122 
COMPS,ioos:station:USF.COMPS:TAR:1,2011-02-01T23:00:00Z,28.1560,-82.7580,24.2,1111122 
COMPS,ioos:station:USF.COMPS:TAR:1,2011-02-01T23:06:00Z,28.1560,-82.7580,23.84,1111122 
COMPS,ioos:station:USF.COMPS:TAR:1,2011-02-01T23:12:00Z,28.1560,-82.7580,23.68,1111122 
COMPS,ioos:station:USF.COMPS:TAR:1,2011-02-01T23:18:00Z,28.1560,-82.7580,23.57,1111122 
COMPS,ioos:station:USF.COMPS:TAR:1,2011-02-01T23:24:00Z,28.1560,-82.7580,23.57,1111122 
COMPS,ioos:station:USF.COMPS:TAR:1,2011-02-01T23:30:00Z,28.1560,-82.7580,23.43,1111122 
COMPS,ioos:station:USF.COMPS:TAR:1,2011-02-01T23:36:00Z,28.1560,-82.7580,23.31,1111122 
COMPS,ioos:station:USF.COMPS:TAR:1,2011-02-01T23:42:00Z,28.1560,-82.7580,23.24,1111122 
COMPS,ioos:station:USF.COMPS:TAR:1,2011-02-01T23:48:00Z,28.1560,-82.7580,23.18,1111122 
COMPS,ioos:station:USF.COMPS:TAR:1,2011-02-01T23:54:00Z,28.1560,-82.7580,23.18,1111122 
COMPS,ioos:station:USF.COMPS:TAR:1,2011-02-02T01:00:00Z,28.1560,-82.7580,23.0,1111122 
COMPS,ioos:station:USF.COMPS:TAR:1,2011-02-02T02:00:00Z,28.1560,-82.7580,22.1,1111122 
COMPS,ioos:station:USF.COMPS:TAR:1,2011-02-02T02:06:00Z,28.1560,-82.7580,21.96,1111122 
COMPS,ioos:station:USF.COMPS:TAR:1,2011-02-02T02:12:00Z,28.1560,-82.7580,21.96,1111122 
COMPS,ioos:station:USF.COMPS:TAR:1,2011-02-02T02:18:00Z,28.1560,-82.7580,21.96,1111122 
COMPS,ioos:station:USF.COMPS:TAR:1,2011-02-02T02:24:00Z,28.1560,-82.7580,22.02,1111122 
COMPS,ioos:station:USF.COMPS:TAR:1,2011-02-02T02:30:00Z,28.1560,-82.7580,21.96,1111122 
COMPS,ioos:station:USF.COMPS:TAR:1,2011-02-02T02:36:00Z,28.1560,-82.7580,21.96,1111122 
COMPS,ioos:station:USF.COMPS:TAR:1,2011-02-02T02:42:00Z,28.1560,-82.7580,22.06,1111122 
COMPS,ioos:station:USF.COMPS:TAR:1,2011-02-02T02:48:00Z,28.1560,-82.7580,22.09,1111122 
COMPS,ioos:station:USF.COMPS:TAR:1,2011-02-02T02:54:00Z,28.1560,-82.7580,22.09,1111122 
COMPS,ioos:station:USF.COMPS:TAR:1,2011-02-02T03:00:00Z,28.1560,-82.7580,22.1,1111122 
COMPS,ioos:station:USF.COMPS:TAR:1,2011-02-02T04:00:00Z,28.1560,-82.7580,22.4,1111122 
COMPS,ioos:station:USF.COMPS:TAR:1,2011-02-02T05:00:00Z,28.1560,-82.7580,21.7,1111122 
COMPS,ioos:station:USF.COMPS:TAR:1,2011-02-02T06:00:00Z,28.1560,-82.7580,21.55,1111122 
COMPS,ioos:station:USF.COMPS:TAR:1,2011-02-02T06:06:00Z,28.1560,-82.7580,21.53,1111122 
COMPS,ioos:station:USF.COMPS:TAR:1,2011-02-02T06:12:00Z,28.1560,-82.7580,21.51,1111122 
COMPS,ioos:station:USF.COMPS:TAR:1,2011-02-02T06:18:00Z,28.1560,-82.7580,21.55,1111122 
COMPS,ioos:station:USF.COMPS:TAR:1,2011-02-02T06:24:00Z,28.1560,-82.7580,21.55,1111122 
COMPS,ioos:station:USF.COMPS:TAR:1,2011-02-02T06:30:00Z,28.1560,-82.7580,21.41,1111122 
COMPS,ioos:station:USF.COMPS:TAR:1,2011-02-02T06:36:00Z,28.1560,-82.7580,21.37,1111122 
COMPS,ioos:station:USF.COMPS:TAR:1,2011-02-02T06:42:00Z,28.1560,-82.7580,21.29,1111122 
COMPS,ioos:station:USF.COMPS:TAR:1,2011-02-02T06:48:00Z,28.1560,-82.7580,21.03,1111122 
COMPS,ioos:station:USF.COMPS:TAR:1,2011-02-02T06:54:00Z,28.1560,-82.7580,20.75,1111122 
COMPS,ioos:station:USF.COMPS:TAR:1,2011-02-02T07:00:00Z,28.1560,-82.7580,20.8,1111122 
COMPS,ioos:station:USF.COMPS:TAR:1,2011-02-02T08:00:00Z,28.1560,-82.7580,20.6,1111122 
COMPS,ioos:station:USF.COMPS:TAR:1,2011-02-02T09:00:00Z,28.1560,-82.7580,20.9,1111122 
COMPS,ioos:station:USF.COMPS:TAR:1,2011-02-02T10:00:00Z,28.1560,-82.7580,20.7,1111122 
COMPS,ioos:station:USF.COMPS:TAR:1,2011-02-02T10:06:00Z,28.1560,-82.7580,20.87,1111122 
COMPS,ioos:station:USF.COMPS:TAR:1,2011-02-02T10:12:00Z,28.1560,-82.7580,20.92,1111122 
COMPS,ioos:station:USF.COMPS:TAR:1,2011-02-02T10:18:00Z,28.1560,-82.7580,20.98,1111122 
COMPS,ioos:station:USF.COMPS:TAR:1,2011-02-02T10:24:00Z,28.1560,-82.7580,21.06,1111122 
COMPS,ioos:station:USF.COMPS:TAR:1,2011-02-02T10:30:00Z,28.1560,-82.7580,21.19,1111122 
COMPS,ioos:station:USF.COMPS:TAR:1,2011-02-02T10:36:00Z,28.1560,-82.7580,21.28,1111122 
COMPS,ioos:station:USF.COMPS:TAR:1,2011-02-02T10:42:00Z,28.1560,-82.7580,21.28,1111122 
COMPS,ioos:station:USF.COMPS:TAR:1,2011-02-02T10:48:00Z,28.1560,-82.7580,21.3,1111122 
COMPS,ioos:station:USF.COMPS:TAR:1,2011-02-02T10:54:00Z,28.1560,-82.7580,21.28,1111122 
COMPS,ioos:station:USF.COMPS:TAR:1,2011-02-02T11:00:00Z,28.1560,-82.7580,21.3,1111122 
COMPS,ioos:station:USF.COMPS:TAR:1,2011-02-02T12:00:00Z,28.1560,-82.7580,21.3,1111122 
COMPS,ioos:station:USF.COMPS:TAR:1,2011-02-02T13:00:00Z,28.1560,-82.7580,21.4,1111122 
COMPS,ioos:station:USF.COMPS:TAR:1,2011-02-02T13:06:00Z,28.1560,-82.7580,21.56,1111122 
COMPS,ioos:station:USF.COMPS:TAR:1,2011-02-02T13:12:00Z,28.1560,-82.7580,21.68,1111122 
COMPS,ioos:station:USF.COMPS:TAR:1,2011-02-02T13:18:00Z,28.1560,-82.7580,21.76,1111122 
COMPS,ioos:station:USF.COMPS:TAR:1,2011-02-02T13:24:00Z,28.1560,-82.7580,21.87,1111122 
COMPS,ioos:station:USF.COMPS:TAR:1,2011-02-02T13:30:00Z,28.1560,-82.7580,21.91,1111122 
COMPS,ioos:station:USF.COMPS:TAR:1,2011-02-02T13:36:00Z,28.1560,-82.7580,21.97,1111122 
COMPS,ioos:station:USF.COMPS:TAR:1,2011-02-02T13:42:00Z,28.1560,-82.7580,21.98,1111122 
COMPS,ioos:station:USF.COMPS:TAR:1,2011-02-02T13:48:00Z,28.1560,-82.7580,21.97,1111122 
COMPS,ioos:station:USF.COMPS:TAR:1,2011-02-02T13:54:00Z,28.1560,-82.7580,22.08,1111122 
COMPS,ioos:station:USF.COMPS:TAR:1,2011-02-02T14:00:00Z,28.1560,-82.7580,22.1,1111122 
COMPS,ioos:station:USF.COMPS:TAR:1,2011-02-02T15:00:00Z,28.1560,-82.7580,22.5,1111122 
COMPS,ioos:station:USF.COMPS:TAR:1,2011-02-02T16:00:00Z,28.1560,-82.7580,22.6,1111122 
COMPS,ioos:station:USF.COMPS:TAR:1,2011-02-02T16:06:00Z,28.1560,-82.7580,22.35,1111122 
COMPS,ioos:station:USF.COMPS:TAR:1,2011-02-02T16:12:00Z,28.1560,-82.7580,21.75,1111122 
COMPS,ioos:station:USF.COMPS:TAR:1,2011-02-02T16:18:00Z,28.1560,-82.7580,21.18,1111122 
COMPS,ioos:station:USF.COMPS:TAR:1,2011-02-02T16:24:00Z,28.1560,-82.7580,20.67,1111122 
COMPS,ioos:station:USF.COMPS:TAR:1,2011-02-02T16:30:00Z,28.1560,-82.7580,20.34,1111122 
COMPS,ioos:station:USF.COMPS:TAR:1,2011-02-02T16:36:00Z,28.1560,-82.7580,19.99,1111122 
COMPS,ioos:station:USF.COMPS:TAR:1,2011-02-02T16:42:00Z,28.1560,-82.7580,19.8,1111122 
COMPS,ioos:station:USF.COMPS:TAR:1,2011-02-02T16:48:00Z,28.1560,-82.7580,19.78,1111122 
COMPS,ioos:station:USF.COMPS:TAR:1,2011-02-02T16:54:00Z,28.1560,-82.7580,19.73,1111122 
COMPS,ioos:station:USF.COMPS:TAR:1,2011-02-02T17:00:00Z,28.1560,-82.7580,19.7,1111122 
COMPS,ioos:station:USF.COMPS:TAR:1,2011-02-02T18:00:00Z,28.1560,-82.7580,19.5,1111122 
COMPS,ioos:station:USF.COMPS:TAR:1,2011-02-02T19:00:00Z,28.1560,-82.7580,20.8,1111122 
COMPS,ioos:station:USF.COMPS:TAR:1,2011-02-02T20:00:00Z,28.1560,-82.7580,21.7,1111122 
COMPS,ioos:station:USF.COMPS:TAR:1,2011-02-02T21:00:00Z,28.1560,-82.7580,22.6,1111122 
COMPS,ioos:station:USF.COMPS:TAR:1,2011-02-02T21:06:00Z,28.1560,-82.7580,22.71,1111122 
COMPS,ioos:station:USF.COMPS:TAR:1,2011-02-02T21:12:00Z,28.1560,-82.7580,22.55,1111122 
COMPS,ioos:station:USF.COMPS:TAR:1,2011-02-02T21:18:00Z,28.1560,-82.7580,22.5,1111122 
COMPS,ioos:station:USF.COMPS:TAR:1,2011-02-02T21:24:00Z,28.1560,-82.7580,22.55,1111122 
COMPS,ioos:station:USF.COMPS:TAR:1,2011-02-02T21:30:00Z,28.1560,-82.7580,22.42,1111122 
COMPS,ioos:station:USF.COMPS:TAR:1,2011-02-02T21:36:00Z,28.1560,-82.7580,22.36,1111122 
COMPS,ioos:station:USF.COMPS:TAR:1,2011-02-02T21:42:00Z,28.1560,-82.7580,22.24,1111122 
COMPS,ioos:station:USF.COMPS:TAR:1,2011-02-02T21:48:00Z,28.1560,-82.7580,22.07,1111122 
COMPS,ioos:station:USF.COMPS:TAR:1,2011-02-02T21:54:00Z,28.1560,-82.7580,21.97,1111122 
COMPS,ioos:station:USF.COMPS:TAR:1,2011-02-02T22:00:00Z,28.1560,-82.7580,22.0,1111122 
COMPS,ioos:station:USF.COMPS:TAR:1,2011-02-02T23:00:00Z,28.1560,-82.7580,22.0,1111122 
COMPS,ioos:station:USF.COMPS:TAR:1,2011-02-03T00:00:00Z,28.1560,-82.7580,19.5,1111122 
COMPS,ioos:station:USF.COMPS:TAR:1,2011-02-03T00:06:00Z,28.1560,-82.7580,19.5,1111122 
COMPS,ioos:station:USF.COMPS:TAR:1,2011-02-03T00:12:00Z,28.1560,-82.7580,19.43,1111122 
COMPS,ioos:station:USF.COMPS:TAR:1,2011-02-03T00:18:00Z,28.1560,-82.7580,19.37,1111122 
COMPS,ioos:station:USF.COMPS:TAR:1,2011-02-03T00:24:00Z,28.1560,-82.7580,19.39,1111122 
COMPS,ioos:station:USF.COMPS:TAR:1,2011-02-03T00:30:00Z,28.1560,-82.7580,19.24,1111122 
COMPS,ioos:station:USF.COMPS:TAR:1,2011-02-03T00:36:00Z,28.1560,-82.7580,19.09,1111122 
COMPS,ioos:station:USF.COMPS:TAR:1,2011-02-03T00:42:00Z,28.1560,-82.7580,19.05,1111122 
COMPS,ioos:station:USF.COMPS:TAR:1,2011-02-03T00:48:00Z,28.1560,-82.7580,19.24,1111122 
COMPS,ioos:station:USF.COMPS:TAR:1,2011-02-03T00:54:00Z,28.1560,-82.7580,19.24,1111122 
COMPS,ioos:station:USF.COMPS:TAR:1,2011-02-03T01:00:00Z,28.1560,-82.7580,19.2,1111122 
COMPS,ioos:station:USF.COMPS:TAR:1,2011-02-03T02:00:00Z,28.1560,-82.7580,19.1,1111122 
COMPS,ioos:station:USF.COMPS:TAR:1,2011-02-03T03:00:00Z,28.1560,-82.7580,18.9,1111122 
COMPS,ioos:station:USF.COMPS:TAR:1,2011-02-03T03:06:00Z,28.1560,-82.7580,18.83,1111122 
COMPS,ioos:station:USF.COMPS:TAR:1,2011-02-03T03:12:00Z,28.1560,-82.7580,18.83,1111122 
COMPS,ioos:station:USF.COMPS:TAR:1,2011-02-03T03:18:00Z,28.1560,-82.7580,18.72,1111122 
COMPS,ioos:station:USF.COMPS:TAR:1,2011-02-03T03:24:00Z,28.1560,-82.7580,18.74,1111122 
COMPS,ioos:station:USF.COMPS:TAR:1,2011-02-03T03:30:00Z,28.1560,-82.7580,18.62,1111122 
COMPS,ioos:station:USF.COMPS:TAR:1,2011-02-03T03:36:00Z,28.1560,-82.7580,18.5,1111122 
COMPS,ioos:station:USF.COMPS:TAR:1,2011-02-03T03:42:00Z,28.1560,-82.7580,18.34,1111122 
COMPS,ioos:station:USF.COMPS:TAR:1,2011-02-03T03:48:00Z,28.1560,-82.7580,18.29,1111122 
COMPS,ioos:station:USF.COMPS:TAR:1,2011-02-03T03:54:00Z,28.1560,-82.7580,18.29,1111122 
COMPS,ioos:station:USF.COMPS:TAR:1,2011-02-03T04:00:00Z,28.1560,-82.7580,18.3,1111122 
COMPS,ioos:station:USF.COMPS:TAR:1,2011-02-03T05:00:00Z,28.1560,-82.7580,17.9,1111122 
COMPS,ioos:station:USF.COMPS:TAR:1,2011-02-03T06:00:00Z,28.1560,-82.7580,18.1,1111122 
COMPS,ioos:station:USF.COMPS:TAR:1,2011-02-03T07:00:00Z,28.1560,-82.7580,17.3,1111122 
COMPS,ioos:station:USF.COMPS:TAR:1,2011-02-03T08:00:00Z,28.1560,-82.7580,16.5,1111122 
COMPS,ioos:station:USF.COMPS:TAR:1,2011-02-03T08:06:00Z,28.1560,-82.7580,16.24,1111122 
COMPS,ioos:station:USF.COMPS:TAR:1,2011-02-03T08:12:00Z,28.1560,-82.7580,16.22,1111122 
COMPS,ioos:station:USF.COMPS:TAR:1,2011-02-03T08:18:00Z,28.1560,-82.7580,16.16,1111122 
COMPS,ioos:station:USF.COMPS:TAR:1,2011-02-03T08:24:00Z,28.1560,-82.7580,16.34,1111122 
COMPS,ioos:station:USF.COMPS:TAR:1,2011-02-03T08:30:00Z,28.1560,-82.7580,16.28,1111122 
COMPS,ioos:station:USF.COMPS:TAR:1,2011-02-03T08:36:00Z,28.1560,-82.7580,16.37,1111122 
COMPS,ioos:station:USF.COMPS:TAR:1,2011-02-03T08:42:00Z,28.1560,-82.7580,16.44,1111122 
COMPS,ioos:station:USF.COMPS:TAR:1,2011-02-03T08:48:00Z,28.1560,-82.7580,16.49,1111122 
COMPS,ioos:station:USF.COMPS:TAR:1,2011-02-03T08:54:00Z,28.1560,-82.7580,16.57,1111122 
COMPS,ioos:station:USF.COMPS:TAR:1,2011-02-03T09:00:00Z,28.1560,-82.7580,16.6,1111122 
COMPS,ioos:station:USF.COMPS:TAR:1,2011-02-03T10:00:00Z,28.1560,-82.7580,17.4,1111122 
COMPS,ioos:station:USF.COMPS:TAR:1,2011-02-03T11:00:00Z,28.1560,-82.7580,17.7,1111122 
COMPS,ioos:station:USF.COMPS:TAR:1,2011-02-03T12:00:00Z,28.1560,-82.7580,18.2,1111122 
COMPS,ioos:station:USF.COMPS:TAR:1,2011-02-03T13:00:00Z,28.1560,-82.7580,18.7,1111122 
COMPS,ioos:station:USF.COMPS:TAR:1,2011-02-03T13:06:00Z,28.1560,-82.7580,18.82,1111122 
COMPS,ioos:station:USF.COMPS:TAR:1,2011-02-03T13:12:00Z,28.1560,-82.7580,18.83,1111122 
COMPS,ioos:station:USF.COMPS:TAR:1,2011-02-03T13:18:00Z,28.1560,-82.7580,18.88,1111122 
COMPS,ioos:station:USF.COMPS:TAR:1,2011-02-03T13:24:00Z,28.1560,-82.7580,19.06,1111122 
COMPS,ioos:station:USF.COMPS:TAR:1,2011-02-03T13:30:00Z,28.1560,-82.7580,19.05,1111122 
COMPS,ioos:station:USF.COMPS:TAR:1,2011-02-03T13:36:00Z,28.1560,-82.7580,19.11,1111122 
COMPS,ioos:station:USF.COMPS:TAR:1,2011-02-03T13:42:00Z,28.1560,-82.7580,19.21,1111122 
COMPS,ioos:station:USF.COMPS:TAR:1,2011-02-03T13:48:00Z,28.1560,-82.7580,19.31,1111122 
COMPS,ioos:station:USF.COMPS:TAR:1,2011-02-03T13:54:00Z,28.1560,-82.7580,19.42,1111122 
COMPS,ioos:station:USF.COMPS:TAR:1,2011-02-03T14:00:00Z,28.1560,-82.7580,19.4,1111122 
COMPS,ioos:station:USF.COMPS:TAR:1,2011-02-03T15:00:00Z,28.1560,-82.7580,20.6,1111122 
COMPS,ioos:station:USF.COMPS:TAR:1,2011-02-03T15:06:00Z,28.1560,-82.7580,20.05,1111122 
COMPS,ioos:station:USF.COMPS:TAR:1,2011-02-03T15:12:00Z,28.1560,-82.7580,20.05,1111122 
COMPS,ioos:station:USF.COMPS:TAR:1,2011-02-03T15:18:00Z,28.1560,-82.7580,19.85,1111122 
COMPS,ioos:station:USF.COMPS:TAR:1,2011-02-03T15:24:00Z,28.1560,-82.7580,19.71,1111122 
COMPS,ioos:station:USF.COMPS:TAR:1,2011-02-03T15:30:00Z,28.1560,-82.7580,19.58,1111122 
COMPS,ioos:station:USF.COMPS:TAR:1,2011-02-03T15:36:00Z,28.1560,-82.7580,19.41,1111122 
COMPS,ioos:station:USF.COMPS:TAR:1,2011-02-03T15:42:00Z,28.1560,-82.7580,19.42,1111122 
COMPS,ioos:station:USF.COMPS:TAR:1,2011-02-03T15:48:00Z,28.1560,-82.7580,19.53,1111122 
COMPS,ioos:station:USF.COMPS:TAR:1,2011-02-03T15:54:00Z,28.1560,-82.7580,19.62,1111122 
COMPS,ioos:station:USF.COMPS:TAR:1,2011-02-03T16:00:00Z,28.1560,-82.7580,19.6,1111122 
COMPS,ioos:station:USF.COMPS:TAR:1,2011-02-03T17:00:00Z,28.1560,-82.7580,20.3,1111122 
COMPS,ioos:station:USF.COMPS:TAR:1,2011-02-03T18:00:00Z,28.1560,-82.7580,21.2,1111122 
COMPS,ioos:station:USF.COMPS:TAR:1,2011-02-03T19:00:00Z,28.1560,-82.7580,21.5,1111122 
COMPS,ioos:station:USF.COMPS:TAR:1,2011-02-03T20:00:00Z,28.1560,-82.7580,22.2,1111122 
COMPS,ioos:station:USF.COMPS:TAR:1,2011-02-03T21:00:00Z,28.1560,-82.7580,23.0,1111122 
COMPS,ioos:station:USF.COMPS:TAR:1,2011-02-03T21:06:00Z,28.1560,-82.7580,23.77,1111122 
COMPS,ioos:station:USF.COMPS:TAR:1,2011-02-03T21:12:00Z,28.1560,-82.7580,23.93,1111122 
COMPS,ioos:station:USF.COMPS:TAR:1,2011-02-03T21:18:00Z,28.1560,-82.7580,24.02,1111122 
COMPS,ioos:station:USF.COMPS:TAR:1,2011-02-03T21:24:00Z,28.1560,-82.7580,23.36,1111122 
COMPS,ioos:station:USF.COMPS:TAR:1,2011-02-03T21:30:00Z,28.1560,-82.7580,22.77,1111122 
COMPS,ioos:station:USF.COMPS:TAR:1,2011-02-03T21:36:00Z,28.1560,-82.7580,22.88,1111122 
COMPS,ioos:station:USF.COMPS:TAR:1,2011-02-03T21:42:00Z,28.1560,-82.7580,22.89,1111122 
COMPS,ioos:station:USF.COMPS:TAR:1,2011-02-03T21:48:00Z,28.1560,-82.7580,22.62,1111122 
COMPS,ioos:station:USF.COMPS:TAR:1,2011-02-03T21:54:00Z,28.1560,-82.7580,22.53,1111122 
COMPS,ioos:station:USF.COMPS:TAR:1,2011-02-03T22:00:00Z,28.1560,-82.7580,22.5,1111122 
COMPS,ioos:station:USF.COMPS:TAR:1,2011-02-03T23:00:00Z,28.1560,-82.7580,22.1,1111122 
COMPS,ioos:station:USF.COMPS:TAR:1,2011-02-04T00:00:00Z,28.1560,-82.7580,20.6,1111122 
COMPS,ioos:station:USF.COMPS:TAR:1,2011-02-04T01:00:00Z,28.1560,-82.7580,19.9,1111122 
COMPS,ioos:station:USF.COMPS:TAR:1,2011-02-04T02:00:00Z,28.1560,-82.7580,18.8,1111122 
COMPS,ioos:station:USF.COMPS:TAR:1,2011-02-04T03:00:00Z,28.1560,-82.7580,17.7,1111122 
COMPS,ioos:station:USF.COMPS:TAR:1,2011-02-04T04:00:00Z,28.1560,-82.7580,17.3,1111122 
COMPS,ioos:station:USF.COMPS:TAR:1,2011-02-04T05:00:00Z,28.1560,-82.7580,17.4,1111122 
COMPS,ioos:station:USF.COMPS:TAR:1,2011-02-04T05:06:00Z,28.1560,-82.7580,17.39,1111122 
COMPS,ioos:station:USF.COMPS:TAR:1,2011-02-04T05:12:00Z,28.1560,-82.7580,17.39,1111122 
COMPS,ioos:station:USF.COMPS:TAR:1,2011-02-04T05:18:00Z,28.1560,-82.7580,17.39,1111122 
COMPS,ioos:station:USF.COMPS:TAR:1,2011-02-04T05:24:00Z,28.1560,-82.7580,17.43,1111122 
COMPS,ioos:station:USF.COMPS:TAR:1,2011-02-04T05:30:00Z,28.1560,-82.7580,17.38,1111122 
COMPS,ioos:station:USF.COMPS:TAR:1,2011-02-04T05:36:00Z,28.1560,-82.7580,17.39,1111122 
COMPS,ioos:station:USF.COMPS:TAR:1,2011-02-04T05:42:00Z,28.1560,-82.7580,17.45,1111122 
COMPS,ioos:station:USF.COMPS:TAR:1,2011-02-04T05:48:00Z,28.1560,-82.7580,17.52,1111122 
COMPS,ioos:station:USF.COMPS:TAR:1,2011-02-04T05:54:00Z,28.1560,-82.7580,17.5,1111122 
COMPS,ioos:station:USF.COMPS:TAR:1,2011-02-04T06:00:00Z,28.1560,-82.7580,17.5,1111122 
COMPS,ioos:station:USF.COMPS:TAR:1,2011-02-04T07:00:00Z,28.1560,-82.7580,17.8,1111122 
COMPS,ioos:station:USF.COMPS:TAR:1,2011-02-04T08:00:00Z,28.1560,-82.7580,17.9,1111122 
COMPS,ioos:station:USF.COMPS:TAR:1,2011-02-04T09:00:00Z,28.1560,-82.7580,17.9,1111122 
COMPS,ioos:station:USF.COMPS:TAR:1,2011-02-04T10:00:00Z,28.1560,-82.7580,17.8,1111122 
COMPS,ioos:station:USF.COMPS:TAR:1,2011-02-04T10:06:00Z,28.1560,-82.7580,17.78,1111122 
COMPS,ioos:station:USF.COMPS:TAR:1,2011-02-04T10:12:00Z,28.1560,-82.7580,17.79,1111122 
COMPS,ioos:station:USF.COMPS:TAR:1,2011-02-04T10:18:00Z,28.1560,-82.7580,17.77,1111122 
COMPS,ioos:station:USF.COMPS:TAR:1,2011-02-04T10:24:00Z,28.1560,-82.7580,17.81,1111122 
COMPS,ioos:station:USF.COMPS:TAR:1,2011-02-04T10:30:00Z,28.1560,-82.7580,17.79,1111122 
COMPS,ioos:station:USF.COMPS:TAR:1,2011-02-04T10:36:00Z,28.1560,-82.7580,17.78,1111122 
COMPS,ioos:station:USF.COMPS:TAR:1,2011-02-04T10:42:00Z,28.1560,-82.7580,17.76,1111122 
COMPS,ioos:station:USF.COMPS:TAR:1,2011-02-04T10:48:00Z,28.1560,-82.7580,17.76,1111122 
COMPS,ioos:station:USF.COMPS:TAR:1,2011-02-04T10:54:00Z,28.1560,-82.7580,17.76,1111122 
COMPS,ioos:station:USF.COMPS:TAR:1,2011-02-04T11:00:00Z,28.1560,-82.7580,17.8,1111122 
COMPS,ioos:station:USF.COMPS:TAR:1,2011-02-04T11:06:00Z,28.1560,-82.7580,17.76,1111122 
COMPS,ioos:station:USF.COMPS:TAR:1,2011-02-04T11:12:00Z,28.1560,-82.7580,17.76,1111122 
COMPS,ioos:station:USF.COMPS:TAR:1,2011-02-04T11:18:00Z,28.1560,-82.7580,17.76,1111122 
COMPS,ioos:station:USF.COMPS:TAR:1,2011-02-04T11:24:00Z,28.1560,-82.7580,17.83,1111122 
COMPS,ioos:station:USF.COMPS:TAR:1,2011-02-04T11:30:00Z,28.1560,-82.7580,17.76,1111122 
COMPS,ioos:station:USF.COMPS:TAR:1,2011-02-04T11:36:00Z,28.1560,-82.7580,17.76,1111122 
COMPS,ioos:station:USF.COMPS:TAR:1,2011-02-04T11:42:00Z,28.1560,-82.7580,17.76,1111122 
COMPS,ioos:station:USF.COMPS:TAR:1,2011-02-04T11:48:00Z,28.1560,-82.7580,17.81,1111122 
COMPS,ioos:station:USF.COMPS:TAR:1,2011-02-04T11:54:00Z,28.1560,-82.7580,17.89,1111122 
COMPS,ioos:station:USF.COMPS:TAR:1,2011-02-04T12:00:00Z,28.1560,-82.7580,17.9,1111122 